User: anonymous   Login
Location: Wildlife_Club
(35.6000°N, 81.4330°W)
Time: 16:25:15
(UTC-04:00)
Language:

Cosmos 1782 - Orbit

View from above orbital plane
View from above orbital plane
View from above satellite
View from above satellite

Ground track
Ground track

The orbit data is extracted from the following two-line orbital elements,

1 16986U 86074A   17229.94822138 +.00001070 +00000-0 +70212-4 0  9997
2 16986 082.5057 061.1472 0011652 125.9672 234.2638 15.06611980658977
Epoch (UTC): 17 August 2017 22:45:26
Eccentricity: 0.0011652
inclination: 82.5057°
perigee height: 538 km
apogee height: 554 km
right ascension of ascending node: 61.1472°
argument of perigee: 125.9672°
revolutions per day: 15.06611980
mean anomaly at epoch: 234.2638°
orbit number at epoch: 65897

The dashed part of the orbit path shows where the satellite is in the earth's shadow,  

DLR